Preview of NWS' New Version of Forecast
This preview is not operational and should not be used for support decisions.

Regional Weather Roundup (RWR)

Issued by National Weather Service (NWS)

                            
000
ASUS43 KTOP 220508
RWRKS 

WEATHER ROUNDUP FOR KANSAS
NATIONAL WEATHER SERVICE GOODLAND KS
1200 AM CDT MON APR 22 2019

NOTE:  "FAIR" INDICATES FEW OR NO CLOUDS BELOW 12,000 FEET WITH NO
SIGNIFICANT WEATHER AND/OR OBSTRUCTIONS TO VISIBILITY.

KSZ001>006-013>018-027>032-041>047-220600-
NORTHWEST KANSAS
  
CITY           SKY/WX    TMP DP  RH WIND       PRES   REMARKS
GOODLAND       MOCLDY    49  47  93 N17       29.96R                  
HAYS           CLOUDY    60  49  66 SW5       29.83R                  
HILL CITY      CLOUDY    60  52  74 NW10      29.82R                  
RUSSELL        MOCLDY    60  53  77 CALM      29.78F                  
$$

KSZ061>065-074>080-084>089-220600-
SOUTHWEST KANSAS
  
CITY           SKY/WX    TMP DP  RH WIND       PRES   REMARKS
DODGE CITY     PTCLDY    60  46  59 N16       29.84S                  
ELKHART        CLEAR     57  47  68 NW9       29.94R                  
GARDEN CITY    PTCLDY    56  45  66 N18       29.87R                  
LIBERAL        CLEAR     57  45  64 N9        29.90R                  
PRATT          CLEAR     69  60  73 S12       29.79F                  
$$

KSZ066>073-081>083-090>101-220600-
SOUTHEAST KANSAS
  
CITY           SKY/WX    TMP DP  RH WIND       PRES   REMARKS
CHANUTE        CLEAR     69  50  50 S12       29.89R                  
COFFEYVILLE    CLEAR     70  52  52 S14       29.88R                  
HUTCHINSON     CLOUDY    70  58  65 S12G25    29.80R                  
MEDICINE LODGE   N/A     68  61  78 S12G29    29.77R                  
NEWTON         MOCLDY    70  57  63 S25G33    29.78S                  
PARSONS        CLEAR     69  51  52 S9        29.90R                  
WICHITA INTL   PTCLDY    71  57  61 S21G30    29.78F                  
WICHITA JABRA  CLEAR     69  56  62 S17G26    29.79F                  
WICHITA MCCONL CLEAR     70  56  63 SE14      29.80S                  
WINFIELD       CLEAR     69  55  60 S18G28    29.83S                  
$$

KSZ007>012-019>026-033>040-048>060-102>105-220600-
NORTHEAST KANSAS
  
CITY           SKY/WX    TMP DP  RH WIND       PRES   REMARKS
CONCORDIA      CLOUDY    63  55  75 CALM      29.77F                  
EMPORIA        CLOUDY    70  51  51 S26G38    29.79R                  
LAWRENCE       CLEAR     72  48  42 S15G23    29.82R                  
MANHATTAN      CLOUDY    70  49  47 W7G22     29.84R                  
MARYSVILLE     TSTM      61  55  82 SW15G26   29.88R                  
OLATHE IND     CLEAR     71  50  47 S14G30    29.85R                  
OLATHE EXE     CLEAR     69  50  50 S13G21    29.86R                  
SALINA         TSTM      64  56  75 SE12G23   29.80F                  
TOPEKA BILLARD PTCLDY    72  48  42 S15G21    29.79S                  
TOPEKA FORBES  PTCLDY    71  48  43 S16G25    29.80R                  
$$